STARLINK-30166, 57602

Orbit data source: Space-Track

STARLINK-30166, 57602 is a payload satellite owned by SpaceX/Seattle (US) in LEO that was launched on Fri, 11 Aug 2023 UTC via an FALCON 9 launch vehicle from the Air Force Eastern Test Range (AFETR). Payload-class satellites include a variety of spacecraft equipped with specific instruments for various scientific and technological missions. These include communications satellites like Starlink; space stations such as the ISS; scientific satellites like the Hubble; Earth observation satellites from companies like Planet Labs, Umbra, and HawkEye 360; GPS; miniature CubeSats for education and research; and military/defense satellites.

Loading next visibility...
Identifier
57602, 2023-119A
Orbit
LEO
Country
Flag of USUS
Related business
Manufacturer
SpaceX/Seattle
Mission
Operational Commercial Communications
Bus & Motor
STARLINK V2M, Unknown motor
Mass
730 kg wet, ~700 kg dry
Launch date (UTC)
2023-08-11 (3 years ago)
Launch vehicle
FALCON 9
Launch site
Air Force Eastern Test Range (AFETR)
Object type
Payload
Rocket body
Debris
Shape & HBR
Box + 2 Pan, 17.7 m
Radar Cross Section
33.884 m², Large (>1 m²)

Expand to show TLE details & history
Last TLE update: 19 hours ago

TLE from 19 hours ago
0 STARLINK-30166
1 57602U 23119A   26094.61421190 -.00001325  00000-0 -38623-4 0  9990
2 57602  43.0071 294.9687 0002219 274.5962  85.4636 15.27567438146990
Epoch: 2026-04-04T14:44Z
TLE epoch observation values (Epoch: 2026-04-04T14:44:27.908Z)
Latitude
-0.00002°
Longitude
-119.07907°
Altitude
482.743 km
Speed
7.626 km/s
True Right ascension
19h 39m 52s
True Declination
0° 00' 00"
Sunlit
Object was in daylight at epoch
Visualization orbit readout
Latitude
Unknown
Longitude
Unknown
Altitude
Unknown
Speed
Unknown
Apparent Right ascension
Unknown
Apparent Declination
Unknown
Sunlit
N/A
Visualization observer readout
Local Sidereal Time
15:25:20
Azimuth
Unknown
Elevation
Unknown
Doppler factor
Unknown
Orbital elements
Apogee altitude
486.554 km
Perigee altitude
483.508 km
Semi-major axis
6,863.168 km
Eccentricity
0.00022
Inclination
43.0071°
RAAN
294.9687°
Arg. of periapsis
274.5962°
True anomaly
85.48895°
Mean anomaly
85.4636°
Eccentric anomaly
85.47627°
Mean motion
3.8173 °/min
Orbital period
94.31 mins
BSTAR
-0.000038623
Loading maneuver chart data...
Computing Atmospheric mass density...
Loading historical data...
Loading historical data...
Loading historical data...
Loading historical data...
Loading historical data...
Loading historical data...
Loading historical data...

Documentation

Showing up to 5 results
|